GW0865 Weather Reports


Display with metric or nautical units.
time (UTC)temp
F
wind
direction
speed
MPH
gust
MPH
rain 1hr
in
rain 24hr
in
rain mn
in
humidity
%
barometer
mb
20260507133041 60 268 2.0 5.0 0.00 0.00 0.00 51 1014.1
20260507131553 59 203 2.0 5.0 0.00 0.00 0.00 54 1014.3
20260507130043 59 80 2.0 7.0 0.00 0.00 0.00 53 1014.3
20260507124551 59 215 4.0 8.0 0.00 0.00 0.00 53 1014.3
20260507123041 59 102 2.0 8.0 0.00 0.00 0.00 49 1014.5
20260507121539 60 127 3.0 8.0 0.00 0.00 0.00 54 1014.3
20260507120042 59 158 1.0 8.0 0.00 0.00 0.00 53 1014.4
20260507114555 59 141 0.0 4.0 0.00 0.00 0.00 60 1014.4
20260507113042 58 112 1.0 5.0 0.00 0.00 0.00 60 1014.4
20260507111538 56 355 1.0 7.0 0.00 0.00 0.00 65 1014.6
20260507110049 55 99 2.0 6.0 0.00 0.00 0.00 66 1014.9
20260507104547 56 257 0.0 3.0 0.00 0.00 0.00 67 1015.1
20260507103045 55 230 1.0 3.0 0.00 0.00 0.00 67 1015.1
20260507101541 55 201 0.0 4.0 0.00 0.00 0.00 71 1015.2
20260507100041 54 180 1.0 4.0 0.00 0.00 0.00 72 1015.1
20260507094541 52 134 1.0 5.0 0.00 0.00 0.00 75 1015.1
20260507093045 52 156 1.0 4.0 0.00 0.00 0.00 78 1015.0
20260507091549 51 122 0.0 3.0 0.00 0.00 0.00 81 1015.0
20260507090043 51 119 1.0 4.0 0.00 0.00 0.00 82 1015.0
20260507084540 50 112 0.0 4.0 0.00 0.00 0.00 84 1015.1
20260507083040 49 115 2.0 4.0 0.00 0.00 0.00 84 1015.1
20260507081547 48 56 2.0 8.0 0.00 0.00 0.00 85 1015.1
20260507080048 48 89 1.0 3.0 0.00 0.00 0.00 87 1015.1
20260507074557 47 163 1.0 5.0 0.00 0.00 0.00 88 1015.1
20260507073041 46 93 1.0 4.0 0.00 0.00 0.00 89 1015.0
20260507071540 46 86 1.0 4.0 0.00 0.00 0.00 89 1015.0
20260507070038 45 106 1.0 5.0 0.00 0.00 0.00 89 1014.9
20260507064538 44 104 2.0 4.0 0.00 0.00 0.00 90 1014.9
20260507063039 44 104 1.0 5.0 0.00 0.00 0.00 90 1014.9
20260507061539 43 130 1.0 4.0 0.00 0.00 0.00 91 1014.8
20260507060039 43 118 1.0 2.0 0.00 0.00 0.00 91 1014.8
20260507054548 43 94 0.0 1.0 0.00 0.00 0.00 92 1014.8
20260507053051 42 0 0.0 3.0 0.00 0.00 0.00 92 1014.7
20260507051540 42 0 1.0 2.0 0.00 0.00 0.00 92 1014.6
20260507050041 42 0 0.0 2.0 0.00 0.00 0.00 93 1014.7
20260507044547 41 0 0.0 1.0 0.00 0.00 0.00 93 1014.7
20260507043041 41 0 0.0 1.0 0.00 0.00 0.00 93 1014.6
20260507041541 41 0 0.0 1.0 0.00 0.00 0.00 93 1014.5
20260507040045 41 0 0.0 2.0 0.00 0.00 0.00 92 1014.4
20260507034546 42 0 1.0 3.0 0.00 0.00 0.00 92 1014.4
20260507033044 42 106 0.0 3.0 0.00 0.00 0.00 92 1014.5
20260507031551 42 0 0.0 1.0 0.00 0.00 0.00 92 1014.6
20260507030049 42 96 0.0 1.0 0.00 0.00 0.00 92 1014.7
20260507024545 42 0 0.0 2.0 0.00 0.00 0.00 92 1014.6
20260507023040 42 115 0.0 3.0 0.00 0.00 0.00 92 1014.6
20260507021538 42 0 0.0 2.0 0.00 0.00 0.00 92 1014.7
20260507020039 42 80 0.0 2.0 0.00 0.00 0.00 91 1014.5
20260507014550 42 0 1.0 3.0 0.00 0.00 0.00 91 1014.5
20260507013038 42 0 0.0 3.0 0.00 0.00 0.00 91 1014.6
20260507011541 42 121 1.0 3.0 0.00 0.00 0.00 91 1014.7
20260507010042 42 0 0.0 3.0 0.00 0.00 0.00 91 1014.6
20260507004539 43 77 0.0 2.0 0.00 0.00 0.00 90 1014.6
20260507003039 43 60 1.0 4.0 0.00 0.00 0.00 90 1014.8
20260507001541 43 94 0.0 2.0 0.00 0.00 0.00 90 1014.8
20260507000042 43 70 0.0 3.0 0.00 0.00 0.00 90 1014.9
20260506234539 42 102 0.0 2.0 0.00 0.00 0.00 90 1015.0
20260506233043 42 119 0.0 3.0 0.00 0.00 0.00 90 1015.0
20260506231538 42 88 0.0 3.0 0.00 0.00 0.00 90 1015.0
20260506230048 42 64 0.0 3.0 0.00 0.00 0.00 89 1015.0
20260506224544 43 0 0.0 2.0 0.00 0.00 0.00 88 1015.0
20260506223047 43 69 2.0 6.0 0.00 0.00 0.00 88 1014.9
20260506221545 43 82 1.0 4.0 0.00 0.00 0.00 87 1014.9
20260506220044 43 60 0.0 4.0 0.00 0.00 0.00 87 1014.8
20260506214539 44 102 1.0 4.0 0.00 0.00 0.00 86 1014.7
20260506213100 44 62 3.0 5.0 0.00 0.00 0.00 86 1014.6
20260506211545 44 83 0.0 3.0 0.00 0.00 0.00 85 1014.7
20260506210045 44 73 0.0 4.0 0.00 0.00 0.00 83 1014.5
20260506204546 45 62 2.0 4.0 0.00 0.00 0.00 83 1014.4
20260506203048 45 108 0.0 5.0 0.00 0.00 0.00 81 1014.3
20260506201547 46 66 1.0 6.0 0.00 0.00 0.00 80 1014.2
20260506200040 47 68 2.0 6.0 0.00 0.00 0.00 78 1014.0
20260506194540 47 104 2.0 6.0 0.00 0.00 0.00 76 1014.0
20260506193039 48 69 2.0 7.0 0.00 0.00 0.00 74 1013.8
20260506191538 49 78 2.0 6.0 0.00 0.00 0.00 72 1013.7
20260506190037 50 61 2.0 7.0 0.00 0.00 0.00 71 1013.7
20260506184544 50 50 1.0 8.0 0.00 0.00 0.00 70 1013.7
20260506183042 50 99 6.0 11.0 0.00 0.00 0.00 69 1013.6
20260506181540 51 50 3.0 9.0 0.00 0.00 0.00 69 1013.5
20260506180101 52 92 4.0 8.0 0.00 0.00 0.00 65 1013.4
20260506174543 52 66 4.0 10.0 0.00 0.00 0.00 62 1013.3
20260506173044 53 107 4.0 11.0 0.00 0.00 0.00 60 1013.1
20260506171729 53 70 6.0 10.0 0.00 0.00 0.00 58 1013.2
20260506170056 53 37 5.0 9.0 0.00 0.00 0.00 58 1013.0
20260506164538 54 25 3.0 10.0 0.00 0.00 0.00 58 1013.0
20260506163056 54 37 4.0 7.0 0.00 0.00 0.00 54 1012.9
20260506161538 54 58 3.0 8.0 0.00 0.00 0.00 49 1012.9
20260506160045 54 67 5.0 13.0 0.00 0.00 0.00 51 1012.9
20260506154604 55 21 1.0 8.0 0.00 0.00 0.00 51 1012.8
20260506153054 55 92 3.0 11.0 0.00 0.00 0.00 52 1012.9
20260506151547 55 91 5.0 10.0 0.00 0.00 0.00 53 1013.1
20260506150040 54 65 5.0 12.0 0.00 0.00 0.00 52 1013.1
20260506144542 55 93 6.0 11.0 0.00 0.00 0.00 49 1013.1
20260506143048 56 312 2.0 8.0 0.00 0.00 0.00 47 1013.0
20260506141610 55 26 3.0 7.0 0.00 0.00 0.00 48 1013.0
20260506140045 56 3 4.0 9.0 0.00 0.00 0.00 47 1013.2
20260506134546 55 255 2.0 11.0 0.00 0.00 0.00 50 1013.3